sat.trackr.live / text

‹ back to catalog

COSMOS 2492 (754)

NORAD 39620 · 2014-012A

PAYLOAD ACTIVE UNKNOWN

§ Identity

Operator
Country
CIS
Launch date
2014-03-23
Launch site
PLMSC
Launch vehicle
Mass (kg)
RCS (m²)
6.40

Purposes: nav

External: N2YO · Heavens-Above · Gunter

§ Orbital elements

Epoch: 2026-05-20T04:22:56.140608Z

Period
675.73 min
Inclination
65.3143°
Eccentricity
0.0010943
Mean motion
2.13103163 rev/d
Perigee alt
19,101.9 km
Apogee alt
19,157.7 km
Semi-major
25,507.9 km
B*
0.0000e+0
RAAN
314.8875°
Arg perigee
329.1830°
Mean anomaly
30.7466°
Rev number
9,464

§ Raw data

COSMOS 2492 (754)1 39620U 14012A   26140.18259422 -.00000036  00000+0  00000+0 0  99922 39620  65.3143 314.8875 0010943 329.1830  30.7466  2.13103163 94642

JSON: /api/v1/satellites/39620 · /tle

For live sub-satellite position, see the globe view (requires WebGL).

§ Visibility from observer

Set your observer location to see the next 7 days of passes ≥ 10°. The values pass through the URL so the page stays shareable.

No JS? Fill the form by hand. The geolocation button needs JavaScript.